Location: Stara Lesna
(49.1528°N, 20.2911°E)
Time: 02:48:00
(UTC+02:00)

Cosmos 1908 Rocket - Pass Details

Date: 21 September 2019
Orbit: 606 x 633 km, 82.5° (Epoch: 19 October)

Event Time Altitude Azimuth Distance (km) Brightness Sun altitude
Rises 04:29:29 0° 352° (N) 2,877 7.2 -18.8°
Reaches altitude 10° 04:31:43 10° 355° (N) 1,967 6.4 -18.5°
Maximum altitude 04:36:03 67° 78° (ENE) 661 3.9 -17.8°
Drops below altitude 10° 04:40:21 10° 162° (SSE) 1,956 6.1 -17.2°
Sets 04:42:35 0° 165° (SSE) 2,858 6.9 -16.8°
